www.pogodaiklimat.ru

Погода и климат >> Архив погоды >> Австралия >> Южная Австралия >> Сидуна


ПОГОДА в Сидуне

  • Прогноз погоды в Сидуне
  • Монитор погоды в Сидуне

АРХИВ ПОГОДЫ в Сидуне

Время (UTC), дата Ветер
(напр.,м/с)
 
Видим.   Явления Облачность Т
(С)
Тd
(С)
f
(%)
Тe
(С)
Тes
(С)
Комфортность P
(гПа)
Po
(гПа)
Тmin
(С)
Tmax
(С)
R
(мм)
R24
(мм)
S
(см)
10 15.01 Ю 9 н/о н/о +23.9 +15.7 60 +27 +27 жарко 1007.5 1005.7
11 15.01 ЮВ 8 н/о н/о +23.9 +15.7 60 +27 +27 жарко 1008.1 1006.3
12 15.01 ЮЗ 4 н/о н/о +23.4 +16.2 64 +28 +28 душно 1009.8 1008.0
13 15.01 Ю 7 н/о н/о +23.8 +17.5 68 +28 +28 душно 1009.1 1007.3
14 15.01 ЮВ 5 н/о н/о +25.1 +11.3 42 +26 +26 жарко 1007.8 1006.0
15 15.01 ЮВ 6 н/о н/о +24.9 +12.2 45 +27 +27 жарко 1006.1 1004.3
16 15.01 В 8 н/о н/о +27.5 +7.4 28 +27 +27 жарко 1004.8 1003.0
17 15.01 ЮВ 3 н/о н/о +27.4 +7.8 29 +27 +27 жарко 1005.5 1003.7
18 15.01 ЮЗ 4 н/о н/о +25.8 +14.3 49 +28 +28 жарко 1005.7 1003.9
19 15.01 З 5 н/о н/о +23.1 +18.0 73 +29 +29 очень
душно
1006.5 1004.7
20 15.01 Ю 2 н/о н/о +23.1 +16.6 67 +28 +28 душно 1006.2 1004.4
21 15.01 Ю 3 н/о н/о +23.6 +15.9 62 +27 +27 жарко 1006.2 1004.4
22 15.01 В 3 н/о н/о +25.5 +15.2 53 +28 +28 жарко 1006.2 1004.4
23 15.01 В 5 н/о н/о +30.7 +8.4 25 +30 +30 жарко 1005.7 1003.9
00 16.01 СВ 8 н/о н/о +37.7 +6.6 15 +35 +35 очень
жарко
1005.1 1003.3
01 16.01 СВ 5 н/о н/о +39.1 +6.7 14 +37 +37 очень
жарко
1004.8 1003.0
02 16.01 З 9 н/о н/о +32.6 +11.7 28 +33 +33 жарко 1006.5 1004.7
03 16.01 Ю 9 н/о н/о +23.3 +18.4 74 +29 +29 душно 1008.2 1006.4
04 16.01 Ю 8 н/о н/о +23.1 +17.8 72 +29 +29 очень
душно
1008.1 1006.3
05 16.01 Ю 8 н/о н/о +21.8 +18.4 81 +27 +27 душно 1007.9 1006.1
06 16.01 ЮВ 6 н/о н/о +23.4 +17.4 69 +29 +29 душно 1005.1 1003.3
07 16.01 В 5 н/о н/о +26.6 +15.6 51 +30 +30 душно 1004.6 1002.8
08 16.01 В 4 н/о н/о +27.7 +15.4 47 +31 +31 душно 1003.8 1002.0
09 16.01 Ю 4 н/о н/о +27.7 +14.7 45 +30 +30 жарко 1005.1 1003.3
10 16.01 ЮЗ 3 н/о н/о +23.8 +19.7 78 +29 +29 душно 1006.4 1004.6
11 16.01 ЮЗ 8 н/о н/о +22.5 +18.3 77 +28 +28 душно 1009.2 1007.4
12 16.01 ЮЗ 10 н/о н/о +21.6 +18.2 81 +26 +26 душно 1009.7 1007.9
13 16.01 Ю 7 н/о н/о +21.4 +18.2 82 +26 +26 душно 1009.0 1007.2
14 16.01 ЮВ 5 н/о н/о +22.0 +17.6 76 +27 +27 душно 1008.3 1006.5
15 16.01 С 3 н/о н/о +22.7 +16.5 68 +27 +27 душно 1008.0 1006.2
16 16.01 В 6 н/о н/о +24.5 +15.4 57 +27 +27 жарко 1006.6 1004.8
17 16.01 В 4 н/о н/о +25.8 +14.0 48 +28 +28 жарко 1005.8 1004.0
18 16.01 В 7 н/о н/о +26.6 +13.0 43 +28 +28 жарко 1005.2 1003.4
19 16.01 В 7 н/о н/о +26.8 +12.5 41 +28 +28 жарко 1005.1 1003.3
20 16.01 В 6 н/о н/о +27.2 +11.7 38 +28 +28 жарко 1005.4 1003.6
21 16.01 СВ 8 н/о н/о +28.3 +11.8 36 +29 +29 жарко 1005.5 1003.7
22 16.01 СВ 4 н/о н/о +31.0 +11.4 30 +31 +31 жарко 1006.3 1004.5
23 16.01 З 2 н/о н/о +34.7 +11.8 25 +34 +34 очень
жарко
1007.0 1005.2
00 17.01 ЮЗ 10 н/о н/о +25.5 +18.2 64 +30 +30 душно 1008.4 1006.6
01 17.01 Ю 8 н/о н/о +25.1 +18.1 65 +29 +29 душно 1008.9 1007.1
02 17.01 Ю 8 н/о н/о +29.1 +16.6 47 +33 +33 очень
душно
1008.1 1006.3
03 17.01 Ю 6 н/о н/о +31.4 +15.0 37 +34 +34 душно 1008.1 1006.3
04 17.01 Ю 6 н/о н/о +30.8 +14.8 38 +33 +33 душно 1007.5 1005.7
05 17.01 Ю 4 н/о н/о +30.9 +14.9 38 +33 +33 душно 1006.5 1004.7
06 17.01 ЮЗ 4 н/о н/о +29.4 +18.5 52 +34 +34 очень
душно
1006.0 1004.2
07 17.01 Ю 3 н/о н/о +28.3 +18.7 56 +33 +33 очень
душно
1006.0 1004.2
08 17.01 ЮЗ 9 н/о н/о +23.3 +18.6 75 +29 +29 душно 1006.4 1004.6
09 17.01 ЮЗ 5 н/о н/о +23.2 +18.9 77 +29 +29 душно 1007.0 1005.2
10 17.01 Ю 7 н/о н/о +22.2 +18.8 81 +28 +28 душно 1007.1 1005.3
11 17.01 Ю 6 н/о н/о +21.2 +18.9 87 +26 +26 душно 1007.3 1005.5
12 17.01 Ю 7 н/о н/о +20.7 +19.0 90 +25 +25 комфорт 1007.6 1005.8
13 17.01 Ю 6 н/о н/о +20.0 +18.7 92 +23 +23 комфорт 1008.5 1006.7
14 17.01 Ю 6 н/о н/о +19.7 +18.2 91 +22 +22 комфорт 1009.2 1007.4
15 17.01 ЮВ 6 н/о н/о +19.5 +18.0 91 +21 +21 комфорт 1008.8 1007.0
16 17.01 ЮВ 4 н/о н/о +19.4 +17.7 90 +22 +22 комфорт 1008.4 1006.6
17 17.01 Ю 6 н/о н/о +19.8 +18.5 92 +22 +22 комфорт 1008.1 1006.3
18 17.01 Ю 7 н/о н/о +19.0 +17.7 92 +20 +20 1008.3 1006.5
19 17.01 Ю 7 н/о н/о +19.1 +17.6 91 +20 +20 1009.8 1008.0
20 17.01 Ю 6 н/о н/о +19.3 +17.4 89 +21 +21 комфорт 1011.9 1010.1
21 17.01 Ю 7 н/о н/о +18.8 +17.5 92 +19 +19 1012.9 1011.1
22 17.01 ЮВ 7 н/о н/о +19.1 +17.8 92 +20 +20 1013.2 1011.4
23 17.01 В 8 н/о н/о +20.1 +17.9 87 +23 +23 комфорт 1011.7 1009.9
00 18.01 Ю 8 н/о н/о +20.8 +17.8 83 +24 +24 комфорт 1013.3 1011.5
01 18.01 Ю 8 н/о н/о +22.1 +17.7 76 +27 +27 душно 1013.5 1011.7
02 18.01 Ю 10 н/о н/о +22.1 +16.6 71 +26 +26 душно 1013.2 1011.4
03 18.01 Ю 10 н/о н/о +22.4 +17.1 72 +27 +27 душно 1013.4 1011.6
04 18.01 Ю 6 н/о н/о +23.7 +16.7 65 +27 +27 жарко 1013.8 1012.0
05 18.01 Ю 9 н/о н/о +21.9 +16.4 71 +26 +26 душно 1014.2 1012.4
06 18.01 Ю 11 н/о н/о +20.7 +16.1 75 +23 +23 комфорт 1014.1 1012.3
07 18.01 Ю 10 н/о н/о +20.7 +15.9 74 +23 +23 комфорт 1015.1 1013.3
08 18.01 Ю 11 н/о н/о +20.8 +15.4 71 +23 +23 комфорт 1015.5 1013.7
09 18.01 Ю 10 н/о н/о +19.8 +15.2 75 +21 +21 комфорт 1015.9 1014.1
10 18.01 Ю 8 н/о н/о +19.7 +15.4 76 +21 +21 комфорт 1017.0 1015.2
11 18.01 Ю 9 н/о н/о +19.3 +15.4 78 +20 +20 1017.7 1015.9
12 18.01 Ю 10 н/о н/о +19.2 +16.1 82 +20 +20 1017.9 1016.1
13 18.01 Ю 9 н/о н/о +19.0 +16.0 83 +20 +20 1018.4 1016.6
14 18.01 Ю 9 н/о н/о +19.0 +15.9 82 +20 +20 1018.6 1016.8
15 18.01 ЮВ 7 н/о н/о +18.8 +15.9 83 +19 +19 1018.9 1017.1
16 18.01 ЮВ 5 н/о н/о +18.5 +15.7 84 +19 +19 1019.2 1017.4
17 18.01 ЮВ 4 н/о н/о +18.0 +15.4 85 +18 +18 1018.9 1017.1
18 18.01 ЮВ 6 н/о н/о +18.1 +14.6 80 +18 +18 1018.6 1016.8
19 18.01 ЮВ 6 н/о н/о +18.1 +14.4 79 +18 +18 1019.4 1017.6
20 18.01 ЮВ 5 н/о н/о +17.6 +14.5 82 +17 +17 1020.3 1018.5
21 18.01 ЮВ 5 н/о н/о +18.2 +15.1 82 +18 +18 1020.5 1018.7
22 18.01 Ю 7 н/о н/о +19.6 +16.1 80 +21 +21 комфорт 1020.8 1019.0
23 18.01 Ю 8 н/о н/о +21.4 +15.7 70 +25 +25 комфорт 1021.3 1019.5
00 19.01 ЮВ 7 н/о н/о +21.6 +15.7 69 +25 +25 комфорт 1021.5 1019.7
01 19.01 Ю 7 н/о н/о +21.1 +16.3 74 +24 +24 комфорт 1021.6 1019.8
02 19.01 Ю 8 н/о н/о +20.6 +16.2 76 +23 +23 комфорт 1021.0 1019.2
03 19.01 Ю 8 н/о н/о +21.2 +16.6 75 +25 +25 комфорт 1020.5 1018.7
04 19.01 Ю 7 н/о н/о +21.3 +16.3 73 +25 +25 комфорт 1020.6 1018.8
05 19.01 Ю 9 н/о н/о +20.4 +16.0 76 +23 +23 комфорт 1020.0 1018.2
06 19.01 Ю 9 н/о н/о +20.1 +15.9 77 +22 +22 комфорт 1019.9 1018.1
07 19.01 Ю 9 н/о н/о +18.9 +16.0 83 +19 +19 1019.5 1017.7
08 19.01 Ю 7 н/о н/о +19.2 +17.0 87 +20 +20 1019.2 1017.4
09 19.01 Ю 7 н/о н/о +19.7 +16.5 82 +22 +22 комфорт 1019.5 1017.7
10 19.01 Ю 5 н/о н/о +19.5 +16.5 83 +21 +21 комфорт 1020.4 1018.6
11 19.01 ЮВ 5 н/о н/о +19.1 +16.1 83 +20 +20 1020.7 1018.9
12 19.01 Ю 6 н/о н/о +18.9 +16.1 84 +20 +20 1020.8 1019.0
13 19.01 ЮВ 6 н/о н/о +19.1 +16.0 82 +20 +20 1020.2 1018.4
14 19.01 ЮВ 6 н/о н/о +18.9 +16.1 84 +20 +20 1020.0 1018.2
15 19.01 ЮВ 6 н/о н/о +18.8 +16.0 84 +19 +19 1019.7 1017.9
16 19.01 ЮВ 4 н/о н/о +18.4 +15.6 84 +19 +19 1019.4 1017.6
17 19.01 ЮВ 4 н/о н/о +17.7 +15.5 87 +17 +17 1019.1 1017.3
18 19.01 ЮВ 6 н/о н/о +17.8 +14.1 79 +17 +17 1018.3 1016.5
19 19.01 ЮВ 5 н/о н/о +18.1 +14.0 77 +18 +18 1018.2 1016.4
20 19.01 ЮВ 6 н/о н/о +18.1 +14.4 79 +18 +18 1018.3 1016.5
21 19.01 В 5 н/о н/о +18.7 +14.8 78 +19 +19 1018.5 1016.7
22 19.01 ЮВ 6 н/о н/о +19.2 +14.5 74 +20 +20 1019.6 1017.8
23 19.01 ЮВ 6 н/о н/о +19.8 +14.2 70 +21 +21 комфорт 1020.3 1018.5
00 20.01 ЮВ 5 н/о н/о +21.9 +14.5 63 +25 +25 комфорт 1019.7 1017.9
01 20.01 ЮВ 4 н/о н/о +24.6 +15.2 56 +28 +28 душно 1019.3 1017.5
02 20.01 ЮЗ 7 н/о н/о +23.2 +16.7 67 +28 +28 душно 1019.2 1017.4
03 20.01 ЮЗ 8 н/о н/о +23.1 +16.6 67 +28 +28 душно 1019.0 1017.2
04 20.01 ЮЗ 8 н/о н/о +25.2 +17.4 62 +29 +29 душно 1018.9 1017.1
05 20.01 ЮЗ 7 н/о н/о +23.7 +16.5 64 +27 +27 жарко 1018.5 1016.7
06 20.01 ЮЗ 7 н/о н/о +22.2 +16.7 71 +27 +27 душно 1018.2 1016.4
07 20.01 ЮЗ 7 н/о н/о +21.4 +17.2 77 +25 +25 комфорт 1018.3 1016.5
08 20.01 Ю 7 н/о н/о +20.7 +16.7 78 +24 +24 комфорт 1017.9 1016.1
09 20.01 Ю 8 н/о н/о +20.4 +16.8 80 +23 +23 комфорт 1017.1 1015.3
10 20.01 ЮВ 7 н/о н/о +20.4 +16.6 79 +23 +23 комфорт 1017.2 1015.4
11 20.01 ЮВ 5 н/о н/о +20.3 +16.5 79 +23 +23 комфорт 1017.1 1015.3
12 20.01 Ю 3 н/о н/о +20.2 +16.6 80 +24 +24 комфорт 1017.5 1015.7
13 20.01 Ю 2 н/о н/о +19.6 +16.4 82 +22 +22 комфорт 1017.3 1015.5
14 20.01 ЮВ 3 н/о н/о +17.9 +15.0 83 +18 +18 1016.6 1014.8
15 20.01 ЮВ 2 н/о н/о +17.7 +15.1 85 +18 +18 1015.9 1014.1
16 20.01 Ю 2 н/о н/о +18.6 +15.8 84 +20 +20 1015.4 1013.6
17 20.01 ЮЗ 2 н/о н/о +19.0 +16.4 85 +21 +21 комфорт 1014.8 1013.0
18 20.01 Ю 3 н/о н/о +19.0 +16.4 85 +21 +21 комфорт 1013.8 1012.0
19 20.01 Ю 4 н/о н/о +18.6 +16.8 89 +20 +20 1013.9 1012.1
20 20.01 Ю 3 н/о н/о +18.4 +16.9 91 +19 +19 1014.2 1012.4
21 20.01 Ю 2 н/о н/о +19.2 +17.5 90 +22 +22 комфорт 1014.9 1013.1
22 20.01 Ю 3 н/о н/о +20.9 +17.5 81 +25 +25 комфорт 1014.9 1013.1
23 20.01 Ю 2 н/о н/о +23.1 +16.6 67 +28 +28 душно 1015.4 1013.6
00 21.01 ЮЗ 2 н/о н/о +25.4 +14.5 51 +28 +28 жарко 1015.0 1013.2
01 21.01 ЮЗ 4 н/о н/о +26.7 +15.7 51 +30 +30 душно 1014.5 1012.7
02 21.01 ЮЗ 4 н/о н/о +29.6 +11.6 33 +30 +30 жарко 1014.6 1012.8
03 21.01 ЮЗ 5 н/о н/о +30.6 +11.1 30 +31 +31 жарко 1013.9 1012.1
04 21.01 Ю 5 н/о н/о +32.4 +12.1 29 +33 +33 жарко 1013.2 1011.4
05 21.01 ЮЗ 6 н/о н/о +32.0 +11.7 29 +32 +32 жарко 1012.8 1011.0
06 21.01 Ю 6 н/о н/о +28.1 +12.0 37 +29 +29 жарко 1012.5 1010.7
07 21.01 Ю 5 н/о н/о +27.2 +13.5 43 +29 +29 жарко 1012.0 1010.2
08 21.01 ЮВ 6 н/о н/о +27.1 +12.7 41 +29 +29 жарко 1011.5 1009.7
09 21.01 Ю 6 н/о н/о +28.0 +12.8 39 +29 +29 жарко 1011.2 1009.4
10 21.01 ЮВ 5 н/о н/о +26.3 +12.0 41 +28 +28 жарко 1011.5 1009.7
11 21.01 ЮВ 2 н/о н/о +25.1 +11.3 42 +26 +26 жарко 1012.2 1010.4
12 21.01 Ю 4 н/о н/о +23.3 +16.1 64 +28 +28 душно 1012.3 1010.5
13 21.01 ЮВ 5 н/о н/о +24.3 +16.3 61 +28 +28 душно 1011.8 1010.0
14 21.01 В 4 н/о н/о +24.5 +14.9 55 +27 +27 жарко 1011.7 1009.9
15 21.01 В 4 н/о н/о +24.7 +10.9 42 +26 +26 жарко 1011.0 1009.2
16 21.01 В 4 н/о н/о +24.3 +9.8 40 +25 +25 комфорт 1010.2 1008.4
17 21.01 ЮВ 3 н/о н/о +23.7 +9.3 40 +25 +25 комфорт 1009.8 1008.0
18 21.01 Ю 3 н/о н/о +23.3 +10.0 43 +25 +25 комфорт 1009.7 1007.9
19 21.01 В 2 н/о н/о +22.9 +10.0 44 +25 +25 комфорт 1009.7 1007.9
20 21.01 В 3 н/о н/о +21.9 +10.1 47 +24 +24 комфорт 1009.8 1008.0
21 21.01 СВ 3 н/о н/о +23.5 +10.2 43 +25 +25 комфорт 1009.8 1008.0
22 21.01 СВ 3 н/о н/о +28.1 +9.4 31 +28 +28 жарко 1010.5 1008.7
23 21.01 СВ 7 н/о н/о +33.1 +10.4 25 +33 +33 жарко 1010.7 1008.9
00 22.01 СВ 7 н/о н/о +37.5 +10.0 19 +36 +36 очень
жарко
1010.4 1008.6
01 22.01 СВ 5 н/о н/о +39.1 +8.7 16 +37 +37 очень
жарко
1010.1 1008.3
02 22.01 СВ 3 н/о н/о +40.2 +8.6 15 +38 +38 очень
жарко
1009.5 1007.7
03 22.01 ЮЗ 6 н/о н/о +41.2 +10.4 16 +40 +40 очень
жарко
1008.5 1006.7
04 22.01 Ю 7 н/о н/о +41.5 +8.6 14 +39 +39 очень
жарко
1007.9 1006.1
05 22.01 Ю 9 н/о н/о +39.7 +10.9 18 +39 +39 очень
жарко
1007.2 1005.4
06 22.01 Ю 9 н/о н/о +39.3 +12.2 20 +39 +39 очень
жарко
1006.7 1004.9
07 22.01 Ю 10 н/о н/о +36.1 +12.3 24 +36 +36 очень
жарко
1006.0 1004.2
08 22.01 Ю 10 н/о н/о +35.2 +13.4 27 +36 +36 очень
жарко
1006.0 1004.2
09 22.01 ЮВ 9 н/о н/о +34.5 +13.3 28 +35 +35 очень
жарко
1006.9 1005.1
10 22.01 ЮВ 8 н/о н/о +33.4 +14.0 31 +35 +35 душно 1007.1 1005.3

 

Местоположение метеостанции Сидуна (Южная Австралия, Австралия): широта -32.13 долгота 133.70 высота над уровнем моря 16 м.

В архиве по умолчанию представлена погода в Сидуне за последнюю неделю. Архивные данные за месяц целиком и за предыдущие месяцы, начиная с января 2011 года, Вы можете получить, выбрав интересующий диапазон дат из раскрывающегося списка и нажав кнопку "Ввод!".


*Определитесь, кто Вы:
робот инопланетянин человек

Внимание! Время в таблицах - всемирное. Для получения местного времени необходимо прибавить поправку, которая равна 9.5 ч.

Смотрите также архив погоды в соседних городах и на ближайших метеорологических станциях:

Погода в Миннипа Пирса (Южная Австралия, Австралия) (158 км)
Погода в Таркуле (Южная Австралия, Австралия) (178 км)
Погода в Уудинне (Южная Австралия, Австралия) (193 км)
Погода в Наллаборе (Южная Австралия, Австралия) (275 км)
Погода в Колте (Южная Австралия, Австралия) (295 км)
Погода в Камминсе (Южная Австралия, Австралия) (302 км)
Погода на Аэродроме Вумера (Южная Австралия, Австралия) (314 км)
Погода в Кливе (Южная Австралия, Австралия) (316 км)
Погода в Порт-Линкольне (Южная Австралия, Австралия) (341 км)
Погода в Олимпик Дэм (Южная Австралия, Австралия) (354 км)

Пояснения к столбцам:

Ветер - указаны скорость ветра в м/с - средняя за 10 мин, порывы в срок и между сроками (в фигурных скобках) и направление, откуда дует ветер: С - северный, СВ - северо-восточный, В - восточный, ЮВ - юго-восточный, Ю - южный, ЮЗ - юго-западный, З - западный, СЗ - северо-западный.
Видимость - горизонтальная дальность видимости в метрах или километрах. При видимости от 1 до 10 км при отсутствии осадков обычно наблюдается дымка, при ухудшении видимости до 1 км и менее - туман. В сухую погоду видимость может ухудшаться дымом, пылью или мглою.
Явления - указаны атмосферные явления, наблюдавшиеся в срок или в последний час перед сроком; фигурными скобками обозначены явления, наблюдавшиеся между сроками (за 1-3 часа до срока); квадратными скобками обозначены град или гололедные отложения с указанием их диаметра в мм.
Облачность - указаны через наклонную черту общая и нижняя облачность в баллах и высота нижней границы облаков в метрах; квадратными скобками обозначены формы облаков: Ci - перистые, Cs - перисто-слоистые, Cc - перисто-кучевые, Ac - высококучевые, As - высокослоистые, Sc - слоисто-кучевые, Ns - слоисто-дождевые, Cu - кучевые, Cb - кучево-дождевые. Подробнее классификацию облаков см. в Атласе облаков (PDF).
T - Температура воздуха - температура, измеренная на высоте 2 м над землей.
Td - Температура точки росы - температура, при понижении до которой содержащийся в воздухе водяной пар достигнет насыщения.
f - Относительная влажность воздуха - влажноcть воздуха, измеренная на высоте 2 м над землей.
Te - Эффективная температура - температура, которую ощущает одетый по сезону человек в тени. Характеристика душности погоды. При расчете учитывается влияние влажности воздуха и скорости ветра на теплоощущения человека.
Tes - Эффективная температура на солнце - температура, которую ощущает человек, с поправкой на солнечный нагрев. Характеристика знойности погоды. Зависит от высоты солнца над горизонтом, облачности и скорости ветра. Ночью, в пасмурную погоду, а также при ветре 12 м/с и более поправка равна нулю.
P - Атмосферное давление - приведенное к уровню моря атмосферное давление.
Po - Атмосферное давление - измеренное на уровне метеостанции атмосферное давление.
Tmin - Минимальная температура - минимум температуры воздуха на высоте 2 м над землей.
Tmax - Максимальная температура - максимум температуры воздуха на высоте 2 м над землей.
R - Количество осадков - Количество выпавших осадков за период времени, мм. При наведении курсора мыши на число - период времени, за который выпало указанное количество осадков.
R24 - Количество осадков - Количество выпавших осадков за 24 часа, мм.
S - Снежный покров - Высота снежного покрова, см. При наведении курсора мыши на число - состояние снежного покрова и степень покрытия местности в баллах.